(127427) = 2002 OE23

Discovered at Palomar on 2002-07-22 by NEAT.

Orbit

Orbit type: Main Belt

Note: WebGL enabled browser required.

epoch2024-03-31.0
epoch JD2460400.5
perihelion date2024-03-23.15320
perihelion JD2460392.65320
argument of perihelion (°)337.23787
ascending node (°)294.30622
inclination (°)15.98099
eccentricity0.1805226
perihelion distance (AU)2.5565140
Tisserand w.r.t. Jupiter3.1
ΔV w.r.t. Earth (km/sec)11.1
semimajor axis (AU)3.1196881
mean anomaly (°)1.40356
mean daily motion (°/day)0.17886990
aphelion distance (AU)3.683
period (years)5.51
P-vector [x]0.04057346
P-vector [y]-0.86912986
P-vector [z]-0.49291691
Q-vector [x]0.96715875
Q-vector [y]-0.08972187
Q-vector [z]0.23781074
absolute magnitude14.82
phase slope0.15
uncertainty0
referenceE2024-GI3
observations used616
oppositions16
arc length (days)8120
first opposition used2001
last opposition used2023
residual rms (arc-secs)0.61
perturbers coarse indicatorM-v
perturbers precise indicator003Ek
first observation date used2001-03-02.0
last observation date used2023-05-26.0
computer nameMPCLINUX
JD of orbit computation2456966.732162
perihelion JD uncertainty (days)1.3156E-04
argument of perihelion uncertainty (°)3.5398E-05
ascending node uncertainty (°)2.2290E-05
inclination uncertainty (°)9.2913E-06
eccentricity uncertainty 6.8158E-08
perihelion distance uncertainty (AU)2.1304E-07
Minimum Orbit Intersection Distances (in AU)
for orbit epoch: 2460400.5, reference: E2024-GI3
Mercury2.09302
Venus1.83255
Earth1.54733
Mars1.11506
Jupiter1.52497
Saturn5.3944
Uranus15.0547
Neptune26.3469

Observations

618 total observations over interval: 2001 03 02.44093 – 2023 05 26.198179
These data are available for download (format description).

Date (UT) J2000 RA J2000 Dec Magn Location Ref
2001 03 02.44093 12 03 29.74 -23 14 35.7 20.1   608 – Haleakala-AMOS MPS 60114
2001 03 02.45143 12 03 29.29 -23 14 36.8 19.7   608 – Haleakala-AMOS MPS 60114
2001 03 02.46142 12 03 28.84 -23 14 38.0 19.8   608 – Haleakala-AMOS MPS 60114
2001 03 23.29420 11 46 13.35 -23 04 54.6 20.6   608 – Haleakala-AMOS MPS 60114
2001 03 23.30499 11 46 12.76 -23 04 52.8 19.9   608 – Haleakala-AMOS MPS 60114
2001 03 23.31535 11 46 12.19 -23 04 51.9 19.8   608 – Haleakala-AMOS MPS 60114
2002 06 08.38480 20 52 28.35 -18 38 23.5 18.8   704 – Lincoln Laboratory ETS, New Mexico MPS 60114
2002 06 08.41278 20 52 28.15 -18 38 13.4 19.2   704 – Lincoln Laboratory ETS, New Mexico MPS 60114
2002 06 08.42670 20 52 28.08 -18 38 08.8 19.2   704 – Lincoln Laboratory ETS, New Mexico MPS 60114
2002 06 25.39714 20 47 15.66 -17 09 07.3 18.6   644 – Palomar Mountain/NEAT MPS 60114
2002 06 25.40772 20 47 15.28 -17 09 04.4 19.0   644 – Palomar Mountain/NEAT MPS 60114
2002 06 25.41817 20 47 14.94 -17 09 01.2 18.9   644 – Palomar Mountain/NEAT MPS 60114
2002 07 05.32131 20 40 47.22 -16 23 17.7 18.3   704 – Lincoln Laboratory ETS, New Mexico MPS 60114
2002 07 05.33382 20 40 46.68 -16 23 15.0 18.5   704 – Lincoln Laboratory ETS, New Mexico MPS 60114
2002 07 05.34666 20 40 46.06 -16 23 10.6 18.3   704 – Lincoln Laboratory ETS, New Mexico MPS 60114
2002 07 05.36012 20 40 45.37 -16 23 07.5 18.6   704 – Lincoln Laboratory ETS, New Mexico MPS 60114
2002 07 05.37348 20 40 44.74 -16 23 04.2 18.5   704 – Lincoln Laboratory ETS, New Mexico MPS 60114
2002 07 14.29283 20 33 15.74 -15 45 39.1 18.2   704 – Lincoln Laboratory ETS, New Mexico MPS 60114
2002 07 14.30619 20 33 14.98 -15 45 36.3 18.7   704 – Lincoln Laboratory ETS, New Mexico MPS 60114
2002 07 14.31954 20 33 14.26 -15 45 33.6 18.7   704 – Lincoln Laboratory ETS, New Mexico MPS 60114
2002 07 14.33290 20 33 13.52 -15 45 30.5 18.4   704 – Lincoln Laboratory ETS, New Mexico MPS 60114
2002 07 14.34626 20 33 12.74 -15 45 26.5 18.4   704 – Lincoln Laboratory ETS, New Mexico MPS 60114
2002 07 22.30739 20 25 44.51 -15 14 40.2 17.8   644 – Palomar Mountain/NEAT MPS 60114
2002 07 22.30854 20 25 44.44 -15 14 39.4 17.8   644 – Palomar Mountain/NEAT MPS 60114
2002 07 22.32847 20 25 43.25 -15 14 35.4 17.6   644 – Palomar Mountain/NEAT MPS 60114
2002 07 22.32963 20 25 43.17 -15 14 34.7 17.7   644 – Palomar Mountain/NEAT MPS 60114
2002 07 22.36198 20 25 41.26 -15 14 28.0 17.7   644 – Palomar Mountain/NEAT MPS 60114
2002 07 22.36450 20 25 41.11 -15 14 27.0 17.8   644 – Palomar Mountain/NEAT MPS 60114
2002 08 03.18058 20 14 26.13 -14 32 55.0 17.8   644 – Palomar Mountain/NEAT MPS 60114
2002 08 03.26320 20 14 21.43 -14 32 38.6 17.6   644 – Palomar Mountain/NEAT MPS 60114
2002 08 03.32947 20 14 17.67 -14 32 25.6 17.4   644 – Palomar Mountain/NEAT MPS 60114
2002 08 14.22381 20 05 07.54 -13 58 07.6 18.4   704 – Lincoln Laboratory ETS, New Mexico MPS 60114
2002 08 14.23945 20 05 06.75 -13 58 05.1 19.0   704 – Lincoln Laboratory ETS, New Mexico MPS 60114
2002 08 14.25513 20 05 06.03 -13 58 02.4 18.7   704 – Lincoln Laboratory ETS, New Mexico MPS 60114
2002 08 14.27087 20 05 05.33 -13 57 59.5 18.7   704 – Lincoln Laboratory ETS, New Mexico MPS 60114
2002 08 14.28651 20 05 04.51 -13 57 57.3 18.9   704 – Lincoln Laboratory ETS, New Mexico MPS 60114
2002 08 16.15510 20 03 43.30 -13 52 24.3 18.6   644 – Palomar Mountain/NEAT MPS 61286
2002 08 16.17750 20 03 42.34 -13 52 20.6 18.5   644 – Palomar Mountain/NEAT MPS 61286
2002 08 16.19852 20 03 41.37 -13 52 16.9 18.3   644 – Palomar Mountain/NEAT MPS 61286
2002 08 17.48710 20 02 47.43 -13 48 30.5 19.3   608 – Haleakala-AMOS MPS 60114
2002 08 17.49751 20 02 47.02 -13 48 28.6 19.4   608 – Haleakala-AMOS MPS 60114
2002 08 17.50785 20 02 46.55 -13 48 26.6 19.9   608 – Haleakala-AMOS MPS 60114
2002 10 04.10276 19 59 26.27 -11 41 15.4 19.1   704 – Lincoln Laboratory ETS, New Mexico MPS 63283
2002 10 04.13399 19 59 27.14 -11 41 10.1 19.7   704 – Lincoln Laboratory ETS, New Mexico MPS 63283
2002 10 04.14964 19 59 27.66 -11 41 08.1 20.4   704 – Lincoln Laboratory ETS, New Mexico MPS 63283
2003 11 14.22220 01 31 07.85 +32 41 55.8 19.6   644 – Palomar Mountain/NEAT MPS 90964
2003 11 14.24358 01 31 06.96 +32 41 46.5 19.6   644 – Palomar Mountain/NEAT MPS 90964
2003 11 14.26355 01 31 06.16 +32 41 37.8 19.5   644 – Palomar Mountain/NEAT MPS 90964
2003 11 21.14610 01 27 02.82 +31 50 07.3 19.4   644 – Palomar Mountain/NEAT MPS 91801
2003 11 21.16910 01 27 02.08 +31 49 56.8 19.6   644 – Palomar Mountain/NEAT MPS 91801
2003 11 21.19034 01 27 01.38 +31 49 47.6 19.6   644 – Palomar Mountain/NEAT MPS 91801
2006 01 23.29157 10 02 18.81 +00 20 29.5 20.4 V 703 – Catalina Sky Survey MPS 160381
2006 01 23.29806 10 02 18.52 +00 20 29.8 19.6 V 703 – Catalina Sky Survey MPS 160381
2006 01 23.30454 10 02 18.20 +00 20 29.2 19.9 V 703 – Catalina Sky Survey MPS 160381
2006 01 23.31102 10 02 18.09 +00 20 27.7 20.7 V 703 – Catalina Sky Survey MPS 160381
2006 01 25.32033 10 00 55.72 +00 17 46.5 19.5 R 699 – Lowell Observatory-LONEOS MPS 161745
2006 01 25.34501 10 00 54.53 +00 17 42.1   699 – Lowell Observatory-LONEOS MPS 161745
2006 01 25.36968 10 00 53.53 +00 17 42.8   699 – Lowell Observatory-LONEOS MPS 161745
2006 01 25.39433 10 00 52.50 +00 17 40.6   699 – Lowell Observatory-LONEOS MPS 161745
2006 03 04.27883 09 29 57.15 +00 48 40.1 20.0 V 703 – Catalina Sky Survey MPS 166030
2006 03 04.28638 09 29 56.83 +00 48 41.5 19.6 V 703 – Catalina Sky Survey MPS 166030
2006 03 04.29407 09 29 56.50 +00 48 43.5 19.8 V 703 – Catalina Sky Survey MPS 166030
2006 03 04.30167 09 29 56.07 +00 48 44.3 19.5 V 703 – Catalina Sky Survey MPS 166030
2008 09 07.25931 23 25 07.14 +18 56 41.0 19.1   704 – Lincoln Laboratory ETS, New Mexico MPS 256392
2008 09 07.27280 23 25 06.42 +18 56 40.5 19.6   704 – Lincoln Laboratory ETS, New Mexico MPS 256392
2008 09 07.28627 23 25 05.70 +18 56 39.7 19.6   704 – Lincoln Laboratory ETS, New Mexico MPS 256392
2008 09 07.29965 23 25 05.01 +18 56 38.6 18.9   704 – Lincoln Laboratory ETS, New Mexico MPS 256392
2008 09 07.31304 23 25 04.27 +18 56 38.6 20.4   704 – Lincoln Laboratory ETS, New Mexico MPS 256392
2008 09 22.33867 23 12 21.45 +18 15 41.5 19.0 V 703 – Catalina Sky Survey MPS 257540
2008 09 22.34573 23 12 21.16 +18 15 40.5 19.2 V 703 – Catalina Sky Survey MPS 257540
2008 09 22.35304 23 12 20.62 +18 15 37.4 18.4 V 703 – Catalina Sky Survey MPS 257540
2008 09 22.36028 23 12 20.37 +18 15 36.7 19.5 V 703 – Catalina Sky Survey MPS 257540
2008 09 28.30954 23 07 44.32 +17 48 58.8 19.1 V 703 – Catalina Sky Survey MPS 258911
2008 09 28.31734 23 07 43.96 +17 48 56.3 19.0 V 703 – Catalina Sky Survey MPS 258911
2008 09 28.32520 23 07 43.60 +17 48 54.5 18.7 V 703 – Catalina Sky Survey MPS 258911
2008 09 28.33298 23 07 43.24 +17 48 52.2 18.9 V 703 – Catalina Sky Survey MPS 258911
2008 10 02.22145 23 04 58.79 +17 29 15.4 19.5   704 – Lincoln Laboratory ETS, New Mexico MPS 258911
2008 10 02.23388 23 04 58.27 +17 29 10.8 19.7   704 – Lincoln Laboratory ETS, New Mexico MPS 258911
2008 10 02.24622 23 04 57.77 +17 29 06.9 19.7   704 – Lincoln Laboratory ETS, New Mexico MPS 258911
2008 10 02.25855 23 04 57.21 +17 29 03.7 19.6   704 – Lincoln Laboratory ETS, New Mexico MPS 258911
2008 10 02.27091 23 04 56.69 +17 28 59.8 19.8   704 – Lincoln Laboratory ETS, New Mexico MPS 258911
2011 01 11.29782 08 11 03.91 +18 35 02.2 19.9 V 703 – Catalina Sky Survey MPS 366507
2011 01 11.30346 08 11 03.62 +18 35 02.2 20.2 V 703 – Catalina Sky Survey MPS 366507
2011 01 11.30921 08 11 03.33 +18 35 01.4 20.5 V 703 – Catalina Sky Survey MPS 366507
2011 01 11.31500 08 11 03.04 +18 35 02.1 20.2 V 703 – Catalina Sky Survey MPS 366507
2011 01 16.30714 08 06 37.58 +18 33 04.1 19.7 V G96 – Mt. Lemmon Survey MPS 368149
2011 01 16.31589 08 06 37.11 +18 33 03.6 19.5 V G96 – Mt. Lemmon Survey MPS 368149
2011 01 16.32468 08 06 36.64 +18 33 03.5 19.6 V G96 – Mt. Lemmon Survey MPS 368149
2011 01 16.33347 08 06 36.14 +18 33 03.4 19.6 V G96 – Mt. Lemmon Survey MPS 368149
2011 01 23.23757 08 00 23.07 +18 30 19.8 19.5 V G96 – Mt. Lemmon Survey MPS 368149
2011 01 23.24437 08 00 22.71 +18 30 19.5 19.5 V G96 – Mt. Lemmon Survey MPS 368149
